Location: ????????
(55.0559°N, 39.1270°E)
Time: 17:36:04
(UTC+00:00)

USA 238 DEB - Pass Details

Date: 15 November 2025
Orbit: 886 x 1325 km, 63.4° (Epoch: 24 November)

Event Time Altitude Azimuth Distance (km) Brightness Sun altitude
Exits shadow 03:50:54 10° 306° (NW) 2,961 5.4 -9.2°
Reaches altitude 10° 03:51:01 10° 307° (NW) 2,923 5.4 -9.2°
Maximum altitude 03:57:58 60° 27° (NNE) 1,318 4.3 -8.2°
Drops below altitude 10° 04:05:39 10° 107° (ESE) 3,227 8.0 -7.2°
Sets 04:08:37 0° 111° (ESE) 4,239 9.6 -6.8°
